[[{"header":{"parameterUnit":"m.s-1","parameterCategory":2,"la1":30.2991,"la2":30.254,"lo1":-89.0895,"lo2":-89.0444,"dy":0.0017,"dx":0.0017,"nx":28,"ny":28,"refTime":"2024-04-29T21:00:00:Z","depth":"0","parameterNumber":2,"parameterNumberName":"U-component_of_CURRENTS"},"data":[0,0,0,0,0,0,0,0,0,0,0,0,0,0,0,0,0,0,0,0,0,0,0,0,0,0,0,0,0,0,0,0,0,0,0,0,0,0,0,0,0,0,0,0,0,0,0,0,0,0,0,0,0,0,0,0,0,0,0.2232,0.2233,0,0.2361,0.2363,0.2364,0.2431,0.2431,0.2431,0.2431,0.2492,0.2494,0.2496,0,0,0,0,0,0,0,0,0,0,0,0,0,0.2174,0.2175,0.2231,0.2233,0.2234,0.2361,0.2363,0.2365,0.2431,0.2431,0.2431,0.2431,0.2492,0.2494,0.2496,0,0,0,0,0,0,0,0,0,0,0,0,0,0.2244,0.2175,0.2231,0.228,0.2285,0.236,0.2363,0.2365,0.2431,0.2431,0.2431,0.243,0.2491,0.2494,0.2497,0.2521,0,0,0.2505,0.2506,0,0,0,0,0,0,0,0,0.224,0.2246,0.2271,0.2277,0.2283,0.2376,0.2365,0.2413,0.2432,0.238,0.2431,0.243,0.2445,0.2452,0.2483,0.2524,0.2527,0.2505,0.2507,0.2508,0.2509,0,0,0,0,0,0,0,0.2235,0.2242,0.2286,0.2273,0.228,0.234,0.2349,0.2376,0.2415,0.2384,0.2389,0.2397,0.2448,0.248,0.2485,0.2528,0.2505,0.2508,0.251,0.2511,0.2621,0.2623,0,0,0,0,0,0,0.2205,0.2237,0.2282,0.229,0.2256,0.2341,0.2351,0.235,0.2416,0.2425,0.2397,0.24,0.2476,0.2481,0.2487,0.2535,0.2508,0.2511,0.2513,0.262,0.2622,0.2623,0,0,0,0,0,0,0.2203,0.2207,0.2277,0.2264,0.2277,0.2341,0.234,0.2352,0.2385,0.2426,0.2435,0.2416,0.2476,0.2483,0.2518,0.2537,0.2512,0.2515,0.2619,0.2621,0.2622,0.2621,0,0,0,0,0,0,0.2201,0.2206,0.2205,0.2262,0.2276,0.2309,0.234,0.2355,0.2389,0.2393,0.2445,0.2451,0.2476,0.2514,0.2521,0.254,0.2517,0.2617,0.262,0.2622,0.2619,0.2622,0.2625,0,0,0,0,0,0.2198,0.22,0.2204,0.221,0.2269,0.2308,0.2322,0.237,0.239,0.2399,0.2444,0.2449,0.2534,0.2517,0.2525,0.2546,0.2616,0.2619,0.2622,0.2618,0.2622,0.2625,0,0,0,0,0,0,0.2188,0.2208,0.2214,0.2224,0.2253,0.2318,0.2339,0.2368,0.2416,0.2421,0.2462,0.2471,0.2515,0.2529,0.2509,0.2587,0.2577,0.2582,0.2572,0.2575,0.2578,0.2557,0.2519,0,0,0,0,0,0.2178,0.2177,0.2209,0.2218,0.2228,0.2282,0.2308,0.2335,0.238,0.2402,0.2438,0.2483,0.2536,0.2551,0.2592,0.2624,0.2615,0.2645,0.2648,0.265,0.264,0.2661,0.2664,0.2632,0.2632,0.2632,0,0,0.2178,0.2189,0.219,0.2214,0.2245,0.2265,0.2298,0.2329,0.2351,0.2398,0.244,0.2493,0.2549,0.2598,0.2617,0.2607,0.2651,0.2654,0.2655,0.2644,0.2664,0.2667,0.2669,0.2634,0.2634,0.2634,0,0,0.2178,0.2182,0.2181,0.2199,0.2228,0.2258,0.226,0.2313,0.2338,0.2378,0.2437,0.2492,0.255,0.2606,0.2641,0.268,0.2672,0.27,0.2689,0.271,0.2712,0.2714,0.2682,0.2681,0.2693,0.2693,0.2693,0,0.218,0.2178,0.2191,0.2199,0.2216,0.2248,0.226,0.2293,0.2352,0.2379,0.2379,0.2512,0.2554,0.2641,0.2664,0.2684,0.2678,0.267,0.2711,0.2713,0.2715,0.2682,0.2681,0.2694,0.2694,0.2694,0.2694,0,0.2179,0.2181,0.2185,0.2195,0.2215,0.223,0.2261,0.2286,0.2315,0.2355,0.243,0.2498,0.2573,0.2609,0.2649,0.2708,0.2691,0.2716,0.2695,0.2717,0.2682,0.2681,0.2694,0.2694,0.2694,0.2694,0,0,0.2175,0.2181,0.2182,0.2185,0.2212,0.2229,0.2255,0.2297,0.233,0.2373,0.2426,0.2525,0.2564,0.2606,0.2672,0.2696,0.2705,0.271,0.2711,0.2663,0.2712,0.2642,0.2633,0.2741,0.2741,0.2742,0.2671,0,0.2172,0.2175,0.2183,0.2195,0.22,0.223,0.2256,0.2297,0.2339,0.2394,0.2461,0.2532,0.2561,0.2611,0.2641,0.271,0.2706,0.2718,0.271,0.2708,0.2632,0.2632,0.2526,0.245,0.267,0.267,0.267,0,0.2166,0.2168,0.2172,0.2192,0.2198,0.2214,0.2264,0.2294,0.2369,0.2403,0.2469,0.2523,0.2592,0.2607,0.2663,0.2671,0.268,0.2706,0.2704,0.2638,0.2637,0.2471,0.244,0.2381,0.2668,0.2668,0.2668,0,0.215,0.2162,0.2162,0.2168,0.2197,0.2213,0.2237,0.2302,0.2333,0.2415,0.2447,0.2523,0.2566,0.2596,0.2639,0.2654,0.2678,0.2701,0.2629,0.2622,0.2526,0.2511,0.2424,0.2709,0.2709,0.2709,0.2709,0,0.2139,0.2142,0.2154,0.2155,0.2168,0.22,0.2232,0.2273,0.2339,0.2379,0.2451,0.2494,0.2569,0.2598,0.2623,0.2608,0.2651,0.2609,0.2605,0.252,0.2506,0.2448,0.2428,0.2706,0.2707,0.2707,0.2708,0,0.2123,0.2127,0.2129,0.2152,0.2158,0.2171,0.2209,0.2236,0.2303,0.2358,0.2378,0.2466,0.2503,0.2548,0.2598,0.2573,0.249,0.2562,0.2429,0.241,0.2272,0.2256,0.2049,0.1996,0.2447,0.2445,0.2443,0,0.212,0.2116,0.212,0.2113,0.212,0.214,0.2151,0.2211,0.2239,0.2336,0.2355,0.2416,0.2454,0.2473,0.2458,0.2438,0.2405,0.2305,0.2316,0.2228,0.2209,0.2122,0.2088,0.2176,0.2172,0.2169,0.2166,0,0.2114,0.2109,0.2103,0.2082,0.2081,0.2082,0.2105,0.2117,0.2191,0.2232,0.2285,0.2325,0.236,0.2306,0.2281,0.2263,0.2167,0.2238,0.2197,0.2016,0.1865,0.1825,0.2231,0.2139,0.2141,0.2143,0.2145,0.2146,0.211,0.2089,0.2065,0.2035,0.203,0.2009,0.1984,0.2017,0.2036,0.207,0.2168,0.2183,0.2184,0.2146,0.2099,0.1946,0.1972,0.1876,0.1867,0.179,0.172,0.2036,0.192,0.1921,0.1922,0.1924,0.1925,0,0.2075,0.2038,0.2017,0.1957,0.1915,0.1939,0.1931,0.1894,0.1873,0.1946,0.1975,0.1959,0.1892,0.187,0.1733,0.1606,0.1533,0.154,0.1416,0.1411,0.1734,0.1708,0.1481,0.1481,0.1481,0.1481,0.1481,0.1481,0.2053,0.1991,0.1954,0.1846,0.1809,0.1726,0.1703,0.1673,0.1694,0.1665,0.1653,0.1689,0.1686,0.155,0.1393,0.1353,0.1244,0.1119,0.1158,0.1422,0.1454,0.1485,0.1457,0.118,0.118,0.0773,0.077,0.0768]},{"header":{"parameterUnit":"m.s-1","parameterCategory":2,"la1":30.2991,"la2":30.254,"lo1":-89.0895,"lo2":-89.0444,"dy":0.0017,"dx":0.0017,"nx":28,"ny":28,"refTime":"2024-04-29T21:00:00:Z","depth":"0","parameterNumber":3,"parameterNumberName":"V-component_of_CURRENTS"},"data":[0,0,0,0,0,0,0,0,0,0,0,0,0,0,0,0,0,0,0,0,0,0,0,0,0,0,0,0,0,0,0,0,0,0,0,0,0,0,0,0,0,0,0,0,0,0,0,0,0,0,0,0,0,0,0,0,0,0,0.025,0.025,0,0.0208,0.0207,0.0206,0.0165,0.0165,0.0164,0.0164,0.0097,0.0096,0.0095,0,0,0,0,0,0,0,0,0,0,0,0,0,0.0242,0.0243,0.025,0.025,0.025,0.0208,0.0207,0.0206,0.0165,0.0165,0.0164,0.0164,0.0098,0.0096,0.0094,0,0,0,0,0,0,0,0,0,0,0,0,0,0.0225,0.0243,0.025,0.0226,0.0223,0.0208,0.0207,0.0206,0.0165,0.0165,0.0164,0.0164,0.0099,0.0096,0.0094,0.009,0,0,0.0087,0.0086,0,0,0,0,0,0,0,0,0.0226,0.0225,0.023,0.0228,0.0225,0.0193,0.018,0.0167,0.0165,0.0185,0.0164,0.0163,0.0129,0.0124,0.0114,0.0087,0.0084,0.0087,0.0086,0.0085,0.0084,0,0,0,0,0,0,0,0.0227,0.0226,0.0231,0.023,0.0227,0.0199,0.0196,0.0177,0.0158,0.0183,0.018,0.018,0.0127,0.0117,0.0112,0.0083,0.0087,0.0085,0.0084,0.0083,0.003,0.003,0,0,0,0,0,0,0.0241,0.0228,0.0232,0.023,0.0227,0.02,0.0197,0.0202,0.0158,0.0152,0.018,0.0178,0.0121,0.0115,0.011,0.0106,0.0085,0.0083,0.0082,0.003,0.003,0.003,0,0,0,0,0,0,0.0241,0.0242,0.0234,0.0229,0.0227,0.0201,0.0207,0.0201,0.0194,0.0157,0.015,0.0179,0.012,0.0113,0.0096,0.0103,0.0082,0.008,0.003,0.003,0.003,0.0095,0,0,0,0,0,0,0.0241,0.0243,0.025,0.0231,0.0228,0.0235,0.0207,0.0201,0.0195,0.0192,0.0154,0.0147,0.0119,0.0099,0.0093,0.0099,0.0078,0.003,0.003,0.003,0.0093,0.0097,0.01,0,0,0,0,0,0.0241,0.0255,0.0251,0.0251,0.0239,0.0236,0.0232,0.0209,0.0196,0.02,0.0169,0.0148,0.0094,0.0098,0.0091,0.0096,0.003,0.003,0.003,0.0091,0.0096,0.01,0,0,0,0,0,0,0.0253,0.0252,0.0247,0.0259,0.0253,0.023,0.0232,0.0217,0.0196,0.0192,0.0152,0.0144,0.0129,0.0103,0.0108,0.0078,0.0057,0.0055,0.0105,0.011,0.0113,0.0138,0.0076,0,0,0,0,0,0.0261,0.0272,0.0265,0.0275,0.0276,0.0256,0.0251,0.0239,0.022,0.021,0.0182,0.015,0.0123,0.011,0.0083,0.0073,0.0065,0.0068,0.0072,0.0076,0.0089,0.0076,0.008,0.003,0.003,0.003,0,0,0.0267,0.027,0.0274,0.0278,0.0272,0.0279,0.0252,0.0254,0.0256,0.0206,0.0199,0.0166,0.0122,0.0107,0.0098,0.0087,0.0088,0.0075,0.0079,0.0091,0.0076,0.0081,0.0086,0.0029,0.0029,0.0029,0,0,0.0288,0.0291,0.0307,0.0308,0.0309,0.03,0.0306,0.029,0.028,0.0271,0.0232,0.0205,0.0169,0.0137,0.0116,0.0125,0.011,0.0114,0.0155,0.0141,0.0146,0.015,0.0164,0.0169,0.0115,0.0115,0.0115,0,0.0294,0.0316,0.031,0.0327,0.0332,0.0315,0.0331,0.0321,0.03,0.0297,0.0278,0.0222,0.0182,0.016,0.0159,0.0135,0.0138,0.0144,0.0149,0.0152,0.0155,0.0169,0.0173,0.0118,0.0118,0.0118,0.0118,0,0.0327,0.0343,0.0354,0.0371,0.0376,0.0389,0.0381,0.0381,0.0367,0.0354,0.0336,0.0282,0.0249,0.0226,0.0196,0.0193,0.0194,0.0158,0.0144,0.0165,0.0177,0.0181,0.0123,0.0122,0.0121,0.012,0,0,0.0347,0.0372,0.0377,0.0393,0.0402,0.0411,0.0422,0.0427,0.044,0.041,0.0418,0.0358,0.0333,0.0308,0.0262,0.0246,0.0265,0.022,0.0218,0.0249,0.0267,0.0266,0.0269,0.0237,0.0237,0.0237,0.0274,0,0.0374,0.0416,0.0419,0.0455,0.0476,0.0468,0.0482,0.0484,0.0477,0.0481,0.0431,0.0419,0.0363,0.035,0.0326,0.0279,0.0275,0.026,0.023,0.023,0.0237,0.0273,0.0313,0.0349,0.0278,0.0278,0.0278,0,0.0408,0.0432,0.0476,0.0504,0.0513,0.0531,0.0557,0.0567,0.0566,0.056,0.0541,0.0507,0.0479,0.0426,0.0377,0.0375,0.0334,0.0297,0.0296,0.0277,0.0235,0.0311,0.0358,0.0323,0.0283,0.0283,0.0283,0,0.0435,0.0472,0.051,0.0521,0.055,0.0568,0.0583,0.0593,0.0617,0.0617,0.0636,0.0589,0.0575,0.0517,0.0436,0.0415,0.0392,0.0345,0.0311,0.0311,0.033,0.0331,0.035,0.032,0.032,0.0319,0.0319,0,0.0468,0.0498,0.0528,0.0552,0.0602,0.0605,0.0657,0.0663,0.0687,0.0735,0.0683,0.0709,0.0597,0.0564,0.0484,0.0422,0.0428,0.0339,0.0321,0.0354,0.0356,0.0311,0.0267,0.0321,0.0321,0.032,0.032,0,0.0497,0.0515,0.0563,0.0603,0.062,0.0658,0.0714,0.0752,0.0766,0.0829,0.0837,0.081,0.0777,0.0671,0.058,0.0491,0.0409,0.0392,0.0452,0.044,0.0367,0.0325,0.0328,0.032,0.0376,0.0376,0.0376,0,0.0516,0.0546,0.0607,0.0643,0.0666,0.072,0.0766,0.0793,0.0845,0.0903,0.0945,0.0925,0.0935,0.0806,0.0653,0.0533,0.0451,0.0465,0.0414,0.0391,0.0331,0.0309,0.0301,0.0476,0.0477,0.0478,0.0478,0,0.0556,0.0579,0.0622,0.0696,0.0752,0.0817,0.0886,0.094,0.0991,0.1052,0.1128,0.1142,0.1032,0.0929,0.074,0.0639,0.046,0.0477,0.0435,0.0405,0.0402,0.0377,0.0438,0.0486,0.0485,0.0484,0.0484,0.0484,0.0588,0.0626,0.0685,0.0754,0.0822,0.0912,0.0973,0.1056,0.1156,0.1258,0.1269,0.132,0.1162,0.0922,0.0781,0.0553,0.0525,0.0476,0.0429,0.0413,0.0397,0.0486,0.0511,0.0511,0.051,0.051,0.051,0,0.0627,0.0672,0.0739,0.0824,0.0898,0.0928,0.1053,0.1121,0.125,0.1359,0.1432,0.1417,0.1235,0.1008,0.0704,0.0544,0.0481,0.0445,0.043,0.0423,0.0499,0.0493,0.0539,0.0539,0.0539,0.0539,0.0539,0.0539,0.065,0.0716,0.0749,0.0872,0.0932,0.1038,0.1111,0.1228,0.1333,0.1469,0.1532,0.1563,0.1419,0.0897,0.0585,0.0503,0.0406,0.0373,0.0313,0.0362,0.0362,0.0361,0.0348,0.0362,0.0362,0.029,0.0289,0.0288]}],[{"header":{"parameterUnit":"m.s-1","parameterCategory":2,"la1":30.2991,"la2":30.254,"lo1":-89.0895,"lo2":-89.0444,"dy":0.0017,"dx":0.0017,"nx":28,"ny":28,"refTime":"2024-04-29T21:00:00:Z","depth":"2","parameterNumber":2,"parameterNumberName":"U-component_of_CURRENTS"},"data":[0,0,0,0,0,0,0,0,0,0,0,0,0,0,0,0,0,0,0,0,0,0,0,0,0,0,0,0,0,0,0,0,0,0,0,0,0,0,0,0,0,0,0,0,0,0,0,0,0,0,0,0,0,0,0,0,0,0,0.1923,0.1923,0,0.1923,0.1923,0.1923,0.1901,0.19,0.19,0.19,0.1915,0.1916,0.1916,0,0,0,0,0,0,0,0,0,0,0,0,0,0.1905,0.1905,0.1923,0.1923,0.1923,0.1923,0.1923,0.1923,0.1901,0.19,0.19,0.1899,0.1915,0.1916,0.1916,0,0,0,0,0,0,0,0,0,0,0,0,0,0.1907,0.1906,0.1923,0.1914,0.1914,0.1923,0.1923,0.1923,0.1901,0.19,0.19,0.1899,0.1914,0.1915,0.1917,0.1934,0,0,0.192,0.192,0,0,0,0,0,0,0,0,0.1907,0.1908,0.1915,0.1915,0.1914,0.1914,0.1923,0.1928,0.1901,0.1903,0.19,0.1899,0.1918,0.1919,0.1916,0.1934,0.1935,0.192,0.1921,0.1921,0.1921,0,0,0,0,0,0,0,0.1907,0.1908,0.192,0.1916,0.1915,0.1912,0.1911,0.1923,0.1911,0.1903,0.1902,0.1906,0.1917,0.1915,0.1916,0.1935,0.192,0.1921,0.1922,0.1922,0.1993,0.1994,0,0,0,0,0,0,0.1913,0.1908,0.192,0.192,0.1913,0.1913,0.1912,0.1912,0.1911,0.1911,0.1907,0.1905,0.1913,0.1915,0.1917,0.1958,0.1921,0.1922,0.1923,0.1992,0.1994,0.1995,0,0,0,0,0,0,0.1913,0.1914,0.192,0.1916,0.1917,0.1914,0.1914,0.1913,0.1915,0.1915,0.1914,0.1912,0.1913,0.1915,0.1929,0.1958,0.1923,0.1924,0.1991,0.1992,0.1994,0.2028,0,0,0,0,0,0,0.1912,0.1914,0.1918,0.1917,0.1918,0.1931,0.1915,0.1913,0.192,0.1918,0.1919,0.1919,0.1913,0.1927,0.193,0.1959,0.1924,0.1989,0.1991,0.1994,0.2025,0.2031,0.2035,0,0,0,0,0,0.1911,0.1916,0.1918,0.192,0.1923,0.1931,0.1931,0.1925,0.1921,0.1924,0.1923,0.1919,0.1945,0.1929,0.1932,0.1962,0.1988,0.1991,0.1993,0.2023,0.203,0.2035,0,0,0,0,0,0,0.1908,0.1914,0.1916,0.1922,0.1931,0.1929,0.1933,0.1933,0.1934,0.1933,0.1928,0.1929,0.1957,0.1954,0.1937,0.199,0.1969,0.1973,0.1991,0.1997,0.2002,0.1993,0.1925,0,0,0,0,0,0.1912,0.1916,0.1925,0.1931,0.1936,0.1938,0.1942,0.1941,0.1943,0.1943,0.1945,0.1953,0.1972,0.1978,0.1991,0.2014,0.2009,0.2038,0.2043,0.2047,0.2043,0.2064,0.207,0.2004,0.2004,0.2004,0,0,0.1912,0.1918,0.1919,0.1931,0.1935,0.1943,0.1938,0.1949,0.1956,0.1947,0.1958,0.1973,0.1983,0.201,0.2023,0.2009,0.2064,0.2051,0.2054,0.2048,0.2067,0.2073,0.2079,0.2006,0.2006,0.2005,0,0,0.1913,0.1922,0.1925,0.1934,0.1949,0.1953,0.196,0.1967,0.1971,0.1986,0.199,0.2014,0.2034,0.2046,0.2056,0.2097,0.2093,0.2115,0.2129,0.215,0.2155,0.2159,0.2158,0.2162,0.2113,0.2113,0.2114,0,0.1915,0.1918,0.1929,0.1937,0.1944,0.1959,0.1966,0.1976,0.1987,0.1998,0.1993,0.2039,0.2048,0.2086,0.2102,0.2108,0.2114,0.2104,0.2155,0.2159,0.2163,0.2161,0.2166,0.2115,0.2115,0.2115,0.2115,0,0.1915,0.1922,0.1927,0.194,0.1953,0.1963,0.1981,0.1998,0.2009,0.202,0.2061,0.2075,0.2099,0.212,0.2122,0.2169,0.2162,0.2162,0.2136,0.2172,0.2168,0.2171,0.2118,0.2118,0.2117,0.2116,0,0,0.1904,0.1923,0.1924,0.193,0.1955,0.1963,0.1988,0.2014,0.2034,0.2056,0.2084,0.2123,0.2138,0.215,0.2169,0.219,0.2225,0.2192,0.2192,0.2184,0.2262,0.219,0.2187,0.2241,0.2242,0.2243,0.2246,0,0.19,0.191,0.1923,0.1935,0.1942,0.1968,0.199,0.2019,0.2047,0.2081,0.2112,0.2147,0.2148,0.2172,0.2194,0.2227,0.2238,0.2223,0.2234,0.2234,0.216,0.2189,0.201,0.1993,0.225,0.225,0.2251,0,0.1891,0.1901,0.1909,0.1933,0.1939,0.1953,0.1996,0.2019,0.2075,0.2099,0.214,0.2166,0.2212,0.2205,0.2252,0.2248,0.2253,0.2267,0.2267,0.2188,0.2168,0.2,0.199,0.2256,0.2256,0.2256,0.2255,0,0.1869,0.1888,0.1894,0.1901,0.1934,0.1949,0.1974,0.2026,0.2052,0.2118,0.2147,0.2196,0.2227,0.2251,0.2273,0.2271,0.2316,0.2312,0.2244,0.2238,0.2079,0.2058,0.233,0.233,0.233,0.233,0.233,0,0.1853,0.1857,0.1885,0.1888,0.1904,0.1938,0.1968,0.2005,0.2064,0.2097,0.2155,0.2186,0.2243,0.2273,0.2284,0.2271,0.2318,0.2245,0.2237,0.2086,0.2066,0.2288,0.2283,0.2331,0.233,0.233,0.233,0,0.1826,0.1841,0.1849,0.1882,0.1892,0.1907,0.1955,0.1979,0.2044,0.2092,0.2114,0.2189,0.2228,0.2264,0.2306,0.2273,0.2277,0.2256,0.2064,0.2034,0.2181,0.2178,0.2177,0.2175,0.2173,0.2171,0.217,0,0.1812,0.1814,0.1838,0.184,0.1855,0.1882,0.1899,0.1961,0.1988,0.2082,0.2098,0.2164,0.2184,0.2213,0.2179,0.2164,0.2235,0.1978,0.1936,0.2173,0.2167,0.2167,0.2167,0.1738,0.1733,0.1729,0.1726,0,0.1791,0.1799,0.1805,0.1808,0.1819,0.183,0.1861,0.1878,0.1951,0.1987,0.2033,0.2063,0.209,0.1991,0.1974,0.1944,0.1967,0.1895,0.2198,0.1807,0.176,0.1754,0.1768,0.1691,0.1694,0.1697,0.1699,0.17,0.1775,0.1767,0.1771,0.1762,0.1773,0.1766,0.1749,0.1784,0.1802,0.1827,0.1911,0.1885,0.1884,0.1767,0.1694,0.1626,0.1768,0.1676,0.1688,0.1704,0.1654,0.1607,0.1499,0.1501,0.1503,0.1505,0.1506,0,0.1736,0.1726,0.1722,0.1695,0.1669,0.1702,0.1705,0.167,0.1648,0.1687,0.1699,0.1547,0.1462,0.1465,0.1299,0.1272,0.1262,0.1218,0.1192,0.1228,0.126,0.1187,0.0907,0.0906,0.0904,0.0902,0,0,0.1716,0.1683,0.1664,0.159,0.1575,0.1514,0.15,0.1465,0.1462,0.141,0.1366,0.1447,0.1451,0.1189,0.1126,0.0991,0.1112,0.0948,0.143,0.1439,0.1469,0.1523,0.1453,0,0,0,0,0]},{"header":{"parameterUnit":"m.s-1","parameterCategory":2,"la1":30.2991,"la2":30.254,"lo1":-89.0895,"lo2":-89.0444,"dy":0.0017,"dx":0.0017,"nx":28,"ny":28,"refTime":"2024-04-29T21:00:00:Z","depth":"2","parameterNumber":3,"parameterNumberName":"V-component_of_CURRENTS"},"data":[0,0,0,0,0,0,0,0,0,0,0,0,0,0,0,0,0,0,0,0,0,0,0,0,0,0,0,0,0,0,0,0,0,0,0,0,0,0,0,0,0,0,0,0,0,0,0,0,0,0,0,0,0,0,0,0,0,0,0.0222,0.0222,0,0.0212,0.0212,0.0211,0.0195,0.0195,0.0194,0.0194,0.0172,0.0172,0.0172,0,0,0,0,0,0,0,0,0,0,0,0,0,0.0197,0.0198,0.0222,0.0222,0.0222,0.0212,0.0212,0.0211,0.0195,0.0195,0.0194,0.0194,0.0172,0.0172,0.0172,0,0,0,0,0,0,0,0,0,0,0,0,0,0.0199,0.0198,0.0222,0.0213,0.0212,0.0212,0.0212,0.0211,0.0195,0.0195,0.0194,0.0194,0.0173,0.0172,0.0171,0.0175,0,0,0.017,0.017,0,0,0,0,0,0,0,0,0.0199,0.02,0.0214,0.0213,0.0213,0.0205,0.0195,0.0199,0.0195,0.0201,0.0194,0.0194,0.0183,0.0181,0.0179,0.0174,0.0173,0.017,0.0169,0.0169,0.0169,0,0,0,0,0,0,0,0.0199,0.02,0.0217,0.0214,0.0213,0.0199,0.0199,0.0195,0.0193,0.02,0.0199,0.0199,0.0182,0.018,0.0179,0.0173,0.017,0.0169,0.0169,0.0169,0.0171,0.0171,0,0,0,0,0,0,0.0204,0.02,0.0217,0.0217,0.0206,0.02,0.02,0.0207,0.0193,0.0191,0.02,0.0199,0.0181,0.0179,0.0178,0.019,0.0169,0.0169,0.0168,0.0171,0.0171,0.0171,0,0,0,0,0,0,0.0204,0.0206,0.0218,0.0208,0.0209,0.0201,0.0209,0.0207,0.0206,0.0193,0.0191,0.0201,0.0181,0.0179,0.0181,0.0189,0.0168,0.0168,0.017,0.0171,0.0171,0.0209,0,0,0,0,0,0,0.0203,0.0206,0.0213,0.0209,0.021,0.0223,0.0209,0.0207,0.0207,0.0206,0.0193,0.0191,0.018,0.0182,0.0181,0.0188,0.0167,0.017,0.017,0.0171,0.0207,0.0211,0.0214,0,0,0,0,0,0.0202,0.0216,0.0213,0.0215,0.022,0.0224,0.0223,0.0215,0.0208,0.0212,0.0205,0.0191,0.0185,0.0182,0.018,0.0187,0.0169,0.017,0.0171,0.0206,0.021,0.0214,0,0,0,0,0,0,0.0208,0.0215,0.0212,0.0227,0.0227,0.0222,0.0227,0.0219,0.0216,0.0216,0.02,0.0197,0.0201,0.019,0.0187,0.019,0.0174,0.0174,0.0201,0.0205,0.0208,0.022,0.0167,0,0,0,0,0,0.0213,0.0226,0.0226,0.0238,0.0241,0.0234,0.0234,0.023,0.0227,0.0225,0.0215,0.0207,0.0203,0.0201,0.0195,0.02,0.0189,0.0201,0.0205,0.0208,0.0216,0.0209,0.0212,0.0174,0.0174,0.0174,0,0,0.0218,0.0224,0.023,0.024,0.024,0.0252,0.0233,0.024,0.0248,0.0223,0.0231,0.0219,0.0207,0.0211,0.0211,0.0204,0.0212,0.0209,0.0211,0.0218,0.021,0.0214,0.0217,0.0175,0.0175,0.0175,0,0,0.0236,0.0241,0.0258,0.0262,0.0268,0.0266,0.027,0.0267,0.0265,0.0271,0.0255,0.025,0.0243,0.0237,0.0232,0.0251,0.023,0.0244,0.0272,0.0265,0.0268,0.0271,0.026,0.0262,0.0246,0.0246,0.0246,0,0.024,0.0264,0.0262,0.0279,0.0288,0.0276,0.0295,0.0293,0.029,0.0294,0.0279,0.0271,0.0256,0.0265,0.0268,0.0259,0.025,0.0258,0.027,0.0272,0.0274,0.0263,0.0264,0.0248,0.0248,0.0248,0.0248,0,0.0272,0.029,0.0301,0.0321,0.0329,0.0344,0.0343,0.0348,0.0341,0.0338,0.0342,0.032,0.0315,0.0306,0.0293,0.0301,0.0288,0.0275,0.0261,0.028,0.0267,0.0267,0.0251,0.025,0.025,0.0249,0,0,0.0287,0.0318,0.0322,0.0341,0.0354,0.0367,0.0382,0.0397,0.0413,0.0397,0.0413,0.0395,0.0378,0.0371,0.0348,0.034,0.034,0.0316,0.0314,0.0308,0.0323,0.0313,0.0313,0.0328,0.0328,0.0329,0.0307,0,0.0314,0.0357,0.0363,0.0403,0.0426,0.0424,0.0443,0.0452,0.0452,0.0463,0.0438,0.0442,0.0404,0.0401,0.0386,0.0355,0.0344,0.0347,0.0303,0.0302,0.0293,0.0314,0.0321,0.0303,0.0307,0.0308,0.0308,0,0.0345,0.0372,0.0417,0.0453,0.0463,0.0482,0.0515,0.053,0.0538,0.0536,0.053,0.0508,0.0494,0.0455,0.0413,0.0417,0.0375,0.0346,0.0344,0.0324,0.0294,0.0285,0.0304,0.0308,0.0308,0.0308,0.0308,0,0.0368,0.041,0.045,0.0463,0.0499,0.0518,0.0536,0.0555,0.0579,0.0585,0.06,0.057,0.0562,0.051,0.0441,0.0429,0.0392,0.0366,0.0318,0.0316,0.0309,0.0307,0.0337,0.0337,0.0337,0.0337,0.0337,0,0.04,0.0431,0.0465,0.0489,0.054,0.055,0.0601,0.0611,0.0636,0.0679,0.064,0.066,0.0575,0.054,0.0467,0.0399,0.041,0.0331,0.0315,0.0322,0.0321,0.0314,0.0311,0.0337,0.0337,0.0337,0.0337,0,0.0422,0.0444,0.0493,0.0537,0.0555,0.0591,0.0646,0.0683,0.0697,0.075,0.0755,0.0731,0.0689,0.06,0.0518,0.0441,0.0371,0.0341,0.0353,0.0339,0.0292,0.0291,0.0289,0.0288,0.0288,0.0288,0.0288,0,0.0437,0.0466,0.0529,0.0561,0.0584,0.0637,0.068,0.0712,0.0757,0.08,0.0832,0.0802,0.0794,0.0664,0.0534,0.0412,0.0382,0.0323,0.0301,0.0305,0.0289,0.0289,0.0289,0.0303,0.0303,0.0303,0.0303,0,0.0465,0.0488,0.053,0.0597,0.0648,0.0712,0.0774,0.0819,0.0867,0.0911,0.0957,0.0952,0.0837,0.0716,0.054,0.045,0.0342,0.0317,0.0327,0.0315,0.0317,0.0301,0.0301,0.0302,0.0302,0.0302,0.0302,0.0302,0.0484,0.0516,0.0571,0.0635,0.0699,0.0778,0.0832,0.0899,0.0977,0.1041,0.1042,0.1032,0.0892,0.0671,0.0516,0.0344,0.036,0.0282,0.0283,0.0284,0.029,0.0291,0.0273,0.0272,0.0272,0.0272,0.0272,0,0.0504,0.0544,0.0603,0.068,0.0747,0.0782,0.089,0.0941,0.1032,0.109,0.1126,0.0983,0.0852,0.0682,0.0442,0.03,0.0281,0.0234,0.0245,0.0248,0.025,0.0254,0.0227,0.0227,0.0226,0.0225,0,0,0.0515,0.0569,0.06,0.0704,0.076,0.0854,0.0918,0.0997,0.1061,0.1107,0.1104,0.1099,0.0906,0.0714,0.0522,0.0377,0.034,0.0339,0.0393,0.0433,0.0436,0.0298,0.0311,0,0,0,0,0]}],[{"header":{"parameterUnit":"m.s-1","parameterCategory":2,"la1":30.2991,"la2":30.254,"lo1":-89.0895,"lo2":-89.0444,"dy":0.0017,"dx":0.0017,"nx":28,"ny":28,"refTime":"2024-04-29T21:00:00:Z","depth":"4","parameterNumber":2,"parameterNumberName":"U-component_of_CURRENTS"},"data":[0,0,0,0,0,0,0,0,0,0,0,0,0,0,0,0,0,0,0,0,0,0,0,0,0,0,0,0,0,0,0,0,0,0,0,0,0,0,0,0,0,0,0,0,0,0,0,0,0,0,0,0,0,0,0,0,0,0,0.1287,0.1287,0,0.1292,0.1292,0.1292,0.1298,0.1298,0.1299,0.1299,0.1307,0.1307,0.1306,0,0,0,0,0,0,0,0,0,0,0,0,0,0.1248,0.1249,0.1287,0.1287,0.1287,0.1292,0.1292,0.1292,0.1298,0.1298,0.1299,0.1299,0.1307,0.1307,0.1306,0,0,0,0,0,0,0,0,0,0,0,0,0,0.1258,0.1249,0.1287,0.1293,0.1294,0.1292,0.1292,0.1292,0.1298,0.1298,0.1299,0.1299,0.1307,0.1307,0.1306,0.1295,0,0,0.1306,0.1306,0,0,0,0,0,0,0,0,0.1258,0.1259,0.1292,0.1292,0.1293,0.1297,0.1281,0.1294,0.1298,0.1293,0.1299,0.1299,0.1305,0.1305,0.1301,0.1296,0.1296,0.1306,0.1306,0.1306,0.1306,0,0,0,0,0,0,0,0.1257,0.1259,0.1286,0.1292,0.1293,0.1284,0.1286,0.1283,0.1294,0.1294,0.1295,0.13,0.1305,0.1301,0.1301,0.1296,0.1306,0.1306,0.1306,0.1306,0.136,0.1362,0,0,0,0,0,0,0.1263,0.1258,0.1286,0.1287,0.1279,0.1285,0.1287,0.1293,0.1294,0.1296,0.1299,0.13,0.1301,0.1302,0.1302,0.1345,0.1306,0.1306,0.1305,0.1359,0.136,0.1362,0,0,0,0,0,0,0.1262,0.1265,0.1286,0.1274,0.1277,0.1286,0.1292,0.1293,0.1316,0.1299,0.13,0.1325,0.1302,0.1302,0.1327,0.1343,0.1306,0.1305,0.1357,0.1359,0.1361,0.1395,0,0,0,0,0,0,0.1261,0.1265,0.1283,0.1275,0.1278,0.1304,0.1292,0.1293,0.1318,0.1319,0.132,0.132,0.1302,0.1327,0.1326,0.1342,0.1305,0.1355,0.1358,0.1361,0.1392,0.1398,0.1403,0,0,0,0,0,0.126,0.1274,0.1284,0.1288,0.1299,0.1305,0.1306,0.1311,0.1319,0.1333,0.1339,0.1321,0.1345,0.1328,0.1327,0.1343,0.1353,0.1357,0.136,0.1389,0.1397,0.1403,0,0,0,0,0,0,0.1262,0.1276,0.1286,0.1304,0.1317,0.1308,0.1324,0.1329,0.1344,0.1354,0.1338,0.1338,0.1366,0.1357,0.1339,0.1371,0.1348,0.1351,0.137,0.1377,0.1383,0.1387,0.1305,0,0,0,0,0,0.1273,0.1292,0.1301,0.1319,0.1329,0.1334,0.1343,0.1349,0.1356,0.1364,0.1365,0.1371,0.1375,0.138,0.1382,0.1398,0.1401,0.1411,0.1416,0.1421,0.1427,0.145,0.1458,0.1373,0.1373,0.1373,0,0,0.1279,0.1291,0.1302,0.1322,0.1333,0.1345,0.1341,0.1364,0.1378,0.1362,0.1391,0.1394,0.1386,0.1403,0.1415,0.1399,0.145,0.1426,0.1429,0.1432,0.1455,0.1463,0.147,0.1376,0.1375,0.1375,0,0,0.1287,0.1314,0.1329,0.1344,0.137,0.1372,0.1388,0.14,0.1415,0.1441,0.1434,0.1453,0.146,0.1454,0.1451,0.1494,0.1483,0.15,0.1525,0.1548,0.1555,0.1561,0.1583,0.1591,0.1498,0.1498,0.1498,0,0.1296,0.1313,0.1335,0.1351,0.1365,0.1389,0.1404,0.142,0.144,0.1453,0.1461,0.1482,0.1481,0.1488,0.1507,0.1505,0.1519,0.1494,0.1554,0.156,0.1566,0.1587,0.1595,0.15,0.15,0.1499,0.1499,0,0.1303,0.1329,0.1341,0.1371,0.139,0.141,0.1434,0.1463,0.1489,0.1497,0.1531,0.1534,0.1545,0.1549,0.1541,0.1577,0.1575,0.156,0.1532,0.1576,0.1596,0.1604,0.1503,0.1502,0.1501,0.1501,0,0,0.1288,0.1337,0.1344,0.1362,0.1404,0.1415,0.1454,0.1483,0.151,0.1539,0.1567,0.1583,0.1595,0.1595,0.159,0.1609,0.1666,0.1608,0.1609,0.1623,0.1724,0.1583,0.1578,0.1663,0.1664,0.1665,0.1725,0,0.1289,0.132,0.1345,0.1378,0.1395,0.1434,0.1463,0.1498,0.1533,0.157,0.1586,0.1615,0.1608,0.1624,0.1644,0.1665,0.1687,0.1651,0.1687,0.1688,0.1549,0.1582,0.167,0.173,0.1732,0.1733,0.1734,0,0.1279,0.1305,0.1337,0.1384,0.1396,0.1424,0.1479,0.151,0.1566,0.1595,0.1628,0.1647,0.1688,0.1678,0.1732,0.1713,0.1729,0.1737,0.1739,0.1599,0.156,0.1677,0.1748,0.1747,0.1746,0.1745,0.1744,0,0.1244,0.1294,0.1322,0.1339,0.1397,0.1427,0.1464,0.1522,0.1553,0.1622,0.1654,0.1695,0.1731,0.1759,0.1783,0.1773,0.1836,0.1819,0.1702,0.1693,0.1788,0.1781,0.1856,0.1856,0.1856,0.1856,0.1856,0,0.1217,0.1243,0.1315,0.133,0.1369,0.1419,0.1468,0.1512,0.1577,0.1608,0.1671,0.1691,0.1758,0.1793,0.1807,0.1773,0.1857,0.1711,0.1696,0.1803,0.1797,0.1794,0.1786,0.1858,0.1858,0.1857,0.1857,0,0.1169,0.1217,0.1254,0.1328,0.1354,0.1387,0.1468,0.1496,0.1573,0.1619,0.1647,0.1718,0.1756,0.1796,0.1845,0.1786,0.1778,0.1744,0.1866,0.1857,0.162,0.1614,0.1623,0.1619,0.1615,0.1612,0.1609,0,0.1142,0.1161,0.1247,0.1274,0.1313,0.1372,0.1406,0.1486,0.1513,0.161,0.1617,0.1688,0.172,0.1678,0.173,0.1733,0.1706,0.1693,0.1643,0.161,0.1596,0.1595,0.1594,0.1603,0.1602,0.1601,0.16,0,0.1095,0.1141,0.1177,0.1232,0.1278,0.1313,0.137,0.1379,0.1462,0.1544,0.1542,0.1547,0.1578,0.1592,0.16,0.1599,0.1695,0.1652,0.166,0.1612,0.1585,0.1575,0.1578,0.1586,0.1588,0.1589,0.159,0,0.1068,0.1082,0.1139,0.1173,0.1227,0.1237,0.1276,0.1296,0.1328,0.1426,0.1421,0.149,0.1562,0.1523,0.1533,0.1514,0.1487,0.143,0.1448,0.1464,0.1378,0.1318,0.1225,0,0,0,0,0,0.1031,0.1037,0.1071,0.1098,0.1145,0.1175,0.1238,0.1277,0.1354,0.1313,0.136,0.1375,0.1367,0.1402,0.1349,0.1465,0.1502,0.1396,0.1449,0.1512,0.1527,0.1437,0,0,0,0,0,0,0.1007,0.1041,0.1045,0.1025,0.103,0.1066,0.1107,0.1162,0.1139,0.1223,0.1229,0.1282,0.1304,0.1384,0.1322,0.1331,0.1331,0.1437,0.1433,0.1503,0.1517,0.1529,0.1442,0,0,0,0,0]},{"header":{"parameterUnit":"m.s-1","parameterCategory":2,"la1":30.2991,"la2":30.254,"lo1":-89.0895,"lo2":-89.0444,"dy":0.0017,"dx":0.0017,"nx":28,"ny":28,"refTime":"2024-04-29T21:00:00:Z","depth":"4","parameterNumber":3,"parameterNumberName":"V-component_of_CURRENTS"},"data":[0,0,0,0,0,0,0,0,0,0,0,0,0,0,0,0,0,0,0,0,0,0,0,0,0,0,0,0,0,0,0,0,0,0,0,0,0,0,0,0,0,0,0,0,0,0,0,0,0,0,0,0,0,0,0,0,0,0,0.0226,0.0226,0,0.0238,0.0238,0.0238,0.0242,0.0242,0.0242,0.0242,0.0264,0.0265,0.0265,0,0,0,0,0,0,0,0,0,0,0,0,0,0.0194,0.0195,0.0226,0.0227,0.0227,0.0238,0.0238,0.0238,0.0242,0.0242,0.0242,0.0242,0.0264,0.0264,0.0265,0,0,0,0,0,0,0,0,0,0,0,0,0,0.0207,0.0195,0.0226,0.023,0.023,0.0238,0.0238,0.0238,0.0242,0.0242,0.0242,0.0242,0.0263,0.0264,0.0265,0.0272,0,0,0.0268,0.0269,0,0,0,0,0,0,0,0,0.0207,0.0208,0.0229,0.023,0.023,0.0238,0.0235,0.025,0.0242,0.0237,0.0242,0.0242,0.0256,0.0258,0.026,0.0273,0.0274,0.0268,0.0269,0.0269,0.027,0,0,0,0,0,0,0,0.0206,0.0208,0.0231,0.0229,0.023,0.0226,0.0228,0.0238,0.0247,0.0238,0.0238,0.024,0.0257,0.0259,0.0261,0.0275,0.0268,0.0269,0.027,0.027,0.031,0.0311,0,0,0,0,0,0,0.0205,0.0207,0.023,0.0231,0.0218,0.0227,0.0229,0.0236,0.0247,0.0249,0.024,0.024,0.0258,0.0259,0.0261,0.0291,0.0269,0.027,0.0271,0.031,0.031,0.0311,0,0,0,0,0,0,0.0205,0.0208,0.023,0.0219,0.0222,0.0228,0.0235,0.0236,0.0242,0.0248,0.025,0.0245,0.0258,0.026,0.0276,0.0291,0.0271,0.0271,0.0309,0.031,0.0311,0.0337,0,0,0,0,0,0,0.0204,0.0207,0.0214,0.0219,0.0222,0.0239,0.0235,0.0236,0.0243,0.0243,0.0253,0.0255,0.0258,0.0274,0.0277,0.0292,0.0272,0.0309,0.031,0.031,0.0336,0.0339,0.0342,0,0,0,0,0,0.0203,0.0214,0.0214,0.0217,0.0231,0.024,0.0241,0.0245,0.0243,0.0249,0.0256,0.0255,0.0282,0.0276,0.0278,0.0294,0.0308,0.0309,0.031,0.0335,0.0338,0.0342,0,0,0,0,0,0,0.0204,0.0216,0.0216,0.023,0.0236,0.024,0.0248,0.0247,0.0257,0.0259,0.0262,0.0265,0.0285,0.0284,0.0277,0.0308,0.0295,0.0296,0.0312,0.0316,0.0319,0.0324,0.0273,0,0,0,0,0,0.0207,0.022,0.0225,0.0237,0.0241,0.0244,0.0249,0.0251,0.0258,0.0262,0.0269,0.0278,0.0291,0.0299,0.0308,0.0325,0.0312,0.0336,0.0339,0.0342,0.0348,0.034,0.0342,0.0315,0.0315,0.0315,0,0,0.0211,0.0219,0.0226,0.0238,0.0244,0.0257,0.0247,0.0258,0.0271,0.0264,0.0285,0.0288,0.0297,0.0318,0.0326,0.032,0.0341,0.0343,0.0345,0.035,0.0341,0.0344,0.0346,0.0315,0.0315,0.0315,0,0,0.0226,0.0233,0.0248,0.0255,0.0265,0.0269,0.0272,0.0279,0.0285,0.0301,0.0302,0.0315,0.033,0.0343,0.035,0.0374,0.0356,0.0375,0.0397,0.0389,0.0391,0.0393,0.0369,0.0369,0.0377,0.0377,0.0377,0,0.0229,0.0252,0.0252,0.0269,0.0281,0.0276,0.0295,0.03,0.0311,0.0322,0.0312,0.034,0.0345,0.0375,0.0383,0.0382,0.0366,0.0383,0.0392,0.0394,0.0395,0.0371,0.037,0.0379,0.0379,0.0378,0.0378,0,0.0255,0.0274,0.0284,0.0305,0.0316,0.0332,0.0339,0.035,0.0352,0.0358,0.0382,0.0383,0.0399,0.0402,0.0401,0.042,0.0401,0.0395,0.0383,0.0399,0.0372,0.0371,0.0381,0.038,0.038,0.038,0,0,0.0265,0.0297,0.0301,0.0321,0.0339,0.0353,0.0374,0.0397,0.0417,0.0417,0.044,0.0456,0.045,0.0457,0.0454,0.0448,0.0439,0.0427,0.0426,0.0402,0.0406,0.0379,0.0374,0.0432,0.0432,0.0432,0.038,0,0.0287,0.0326,0.0337,0.0377,0.0399,0.0406,0.0429,0.0447,0.0456,0.0473,0.0471,0.0491,0.0473,0.048,0.0472,0.0453,0.0438,0.0453,0.0395,0.0393,0.0366,0.0373,0.0433,0.0378,0.0378,0.0378,0.0378,0,0.0311,0.0336,0.038,0.0421,0.0432,0.0454,0.0494,0.0514,0.0533,0.0538,0.0546,0.0538,0.054,0.0515,0.0481,0.0489,0.0451,0.0426,0.0423,0.0389,0.0364,0.0361,0.0375,0.0375,0.0375,0.0375,0.0375,0,0.0323,0.0368,0.0407,0.0421,0.0463,0.0487,0.051,0.0537,0.0563,0.0578,0.0591,0.0582,0.058,0.0537,0.0484,0.0481,0.0432,0.0422,0.0357,0.0354,0.0382,0.0381,0.0391,0.0391,0.0391,0.0391,0.0391,0,0.0345,0.0377,0.0418,0.0441,0.0491,0.0511,0.0562,0.0579,0.0608,0.0641,0.0626,0.0636,0.0585,0.055,0.0493,0.0419,0.0436,0.0361,0.0343,0.0393,0.0394,0.038,0.038,0.0389,0.039,0.039,0.039,0,0.0353,0.0381,0.0428,0.0479,0.05,0.0536,0.0595,0.0628,0.0649,0.0687,0.0693,0.0678,0.063,0.0567,0.0495,0.0434,0.0366,0.0333,0.0384,0.0369,0.0286,0.0288,0.0254,0.0253,0.0252,0.0251,0.025,0,0.036,0.0386,0.0454,0.0483,0.051,0.0565,0.0605,0.0646,0.0679,0.0711,0.0726,0.0696,0.0672,0.0546,0.0476,0.0357,0.0339,0.029,0.0295,0.0289,0.0275,0.0278,0.0281,0.0248,0.0248,0.0248,0.0248,0,0.0368,0.0395,0.0434,0.0496,0.0545,0.0604,0.066,0.0685,0.0731,0.0752,0.0746,0.0687,0.063,0.0536,0.0444,0.0361,0.0317,0.0278,0.028,0.0284,0.0282,0.0269,0.0273,0.0244,0.0244,0.0245,0.0245,0,0.0371,0.0396,0.0446,0.0502,0.0566,0.0623,0.0656,0.0693,0.0728,0.0757,0.0752,0.0696,0.0669,0.0538,0.0456,0.0369,0.0342,0.03,0.03,0.0304,0.0333,0.0338,0.0303,0,0,0,0,0,0.0369,0.0397,0.0446,0.0508,0.0572,0.0612,0.0685,0.0713,0.0756,0.075,0.0751,0.0696,0.0575,0.053,0.0437,0.0429,0.0325,0.0314,0.0276,0.0222,0.0227,0.0251,0,0,0,0,0,0,0.0366,0.0411,0.0439,0.0505,0.0544,0.0617,0.0667,0.0697,0.0695,0.072,0.0661,0.0646,0.0535,0.0621,0.0424,0.0401,0.0357,0.0268,0.0265,0.022,0.0224,0.0227,0.0254,0,0,0,0,0]}]]